Weather History for Corning, AR

Change the Weather History Date:

Saturday, March 30, 2013

  Actual Average (KARG) Record (KARG)
Temperature  
Mean Temperature 47 °F -  
Max Temperature 53 °F 62 °F 82 °F (2007)
Min Temperature 41 °F 44 °F 30 °F (2003)
Degree Days  
Heating Degree Days 18    
Moisture  
Dew Point 48 °F    
Average Humidity 98    
Maximum Humidity 100    
Minimum Humidity 88    
Precipitation  
Precipitation 0.11 in - - ()
Sea Level Pressure  
Sea Level Pressure 30.08 in    
Wind  
Wind Speed 5 mph (East)    
Max Wind Speed 13 mph    
Max Gust Speed -    
Visibility 2 miles    
Events Fog , Rain    
Averages and records for this station are not official NWS values.
T = Trace of Precipitation, MM = Missing Value Source: NWS Daily Summary

Daily Weather History Graph

Daily Weather History Graph

Search for Another Location

Airport:

Trip Planner

Search our weather history database for the weather conditions in past years. The results will help you decide how hot, cold, wet, or windy it might be!

Date:

Astronomy

Mar. 30, 2013 Rise Set
Actual Time 6:51 AM CDT 7:23 PM CDT
Civil Twilight 6:25 AM CDT 7:49 PM CDT
Nautical Twilight 5:54 AM CDT 8:19 PM CDT
Astronomical Twilight 5:23 AM CDT 8:50 PM CDT
Moon 11:23 PM CDT (3/30) 8:52 AM CDT (3/30)
Length of Visible Light 13h 23m
Length of Day
12h 32m
Waning Gibbous, 86% of the Moon is Illuminated
Mar 30
Waning Gibbous
Apr 2
Last Quarter
Apr 10
New
Apr 18
First Quarter
Apr 25
Full

Hourly Weather History & Observations

Time (CDT) Temp. Windchill Dew Point Humidity Pressure Visibility Wind Dir Wind Speed Gust Speed Precip Events Conditions
12:15 AM 46.4 °F 44.3 °F 46.4 °F 100% 30.21 in 6.0 mi NE 4.6 mph - N/A   Clear
12:35 AM 46.4 °F 45.2 °F 46.4 °F 100% 30.21 in 6.0 mi East 3.5 mph - N/A   Clear
12:55 AM 46.4 °F 45.2 °F 46.4 °F 100% 30.22 in 5.0 mi East 3.5 mph - N/A   Clear
1:15 AM 46.4 °F 44.3 °F 46.4 °F 100% 30.21 in 5.0 mi East 4.6 mph - N/A   Clear
1:35 AM 46.4 °F 44.3 °F 46.4 °F 100% 30.20 in 2.5 mi ESE 4.6 mph - N/A   Clear
1:55 AM 44.6 °F 40.7 °F 44.6 °F 100% 30.19 in 1.2 mi East 6.9 mph - N/A   Clear
2:15 AM 44.6 °F 41.4 °F 44.6 °F 100% 30.18 in 2.5 mi East 5.8 mph - N/A   Clear
2:35 AM 44.6 °F 41.4 °F 44.6 °F 100% 30.17 in 2.0 mi East 5.8 mph - N/A   Clear
2:55 AM 44.6 °F 42.2 °F 44.6 °F 100% 30.17 in 0.8 mi ENE 4.6 mph - N/A   Mist
3:15 AM 44.6 °F - 44.6 °F 100% 30.17 in 2.0 mi Calm Calm - N/A   Clear
3:35 AM 42.8 °F 40.1 °F 42.8 °F 100% 30.17 in 0.5 mi NE 4.6 mph - N/A Fog Fog
3:55 AM 44.6 °F 41.4 °F 44.6 °F 100% 30.16 in 0.2 mi NE 5.8 mph - N/A Fog Fog
4:15 AM 42.8 °F 39.3 °F 42.8 °F 100% 30.17 in 0.2 mi NNE 5.8 mph - N/A Fog Fog
4:55 AM 42.8 °F 39.3 °F 42.8 °F 100% 30.15 in 0.2 mi NNE 5.8 mph - N/A Fog Fog
5:15 AM 42.8 °F 41.1 °F 42.8 °F 100% 30.15 in 0.5 mi NE 3.5 mph - N/A Fog Fog
5:35 AM 42.8 °F 40.1 °F 42.8 °F 100% 30.15 in 0.2 mi NE 4.6 mph - N/A Fog Fog
5:55 AM 41.0 °F 39.0 °F 41.0 °F 100% 30.16 in 0.2 mi NNE 3.5 mph - N/A Fog Fog
6:15 AM 41.0 °F 39.0 °F 41.0 °F 100% 30.16 in 0.2 mi NNE 3.5 mph - N/A Fog Fog
6:35 AM 41.0 °F 39.0 °F 41.0 °F 100% 30.16 in 0.2 mi NE 3.5 mph - N/A Fog Fog
6:55 AM 42.8 °F 41.1 °F 42.8 °F 100% 30.16 in 0.2 mi NE 3.5 mph - N/A Fog Fog
7:15 AM 42.8 °F 39.3 °F 42.8 °F 100% 30.16 in 0.2 mi NE 5.8 mph - N/A Fog Fog
7:35 AM 44.6 °F 42.2 °F 44.6 °F 100% 30.15 in 0.2 mi ENE 4.6 mph - N/A Fog Fog
7:55 AM 44.6 °F 42.2 °F 44.6 °F 100% 30.16 in 0.2 mi East 4.6 mph - N/A Fog Fog
8:15 AM 44.6 °F 43.1 °F 44.6 °F 100% 30.17 in 0.2 mi ENE 3.5 mph - N/A Fog Fog
8:35 AM 46.4 °F 44.3 °F 46.4 °F 100% 30.16 in 0.8 mi East 4.6 mph - N/A   Overcast
8:55 AM 46.4 °F 43.5 °F 46.4 °F 100% 30.15 in 2.0 mi ENE 5.8 mph - N/A   Mostly Cloudy
9:15 AM 46.4 °F 44.3 °F 46.4 °F 100% 30.15 in 2.0 mi ENE 4.6 mph - N/A   Mostly Cloudy
9:35 AM 46.4 °F 42.9 °F 46.4 °F 100% 30.15 in 1.8 mi NE 6.9 mph - N/A   Mostly Cloudy
9:55 AM 46.4 °F 42.4 °F 46.4 °F 100% 30.15 in 2.5 mi NE 8.1 mph - N/A   Partly Cloudy
10:15 AM 46.4 °F 42.9 °F 46.4 °F 100% 30.14 in 3.0 mi ENE 6.9 mph - N/A   Clear
10:35 AM 48.2 °F - 48.2 °F 100% 30.14 in 4.0 mi NE 9.2 mph - N/A   Clear
10:55 AM 48.2 °F - 48.2 °F 100% 30.14 in 5.0 mi NE 9.2 mph - N/A   Partly Cloudy
11:15 AM 48.2 °F - 48.2 °F 100% 30.12 in 5.0 mi ENE 8.1 mph - N/A   Partly Cloudy
11:35 AM 50.0 °F - 48.2 °F 94% 30.12 in 7.0 mi East 6.9 mph - N/A   Partly Cloudy
11:55 AM 50.0 °F - 48.2 °F 94% 30.11 in 7.0 mi East 5.8 mph - N/A   Partly Cloudy
12:15 PM 50.0 °F - 48.2 °F 94% 30.10 in 7.0 mi ENE 6.9 mph - N/A   Partly Cloudy
12:35 PM 51.8 °F - 48.2 °F 88% 30.09 in 7.0 mi ENE 5.8 mph - N/A   Partly Cloudy
12:55 PM 51.8 °F - 48.2 °F 88% 30.09 in 6.0 mi SE 8.1 mph - N/A   Clear
1:15 PM 51.8 °F - 48.2 °F 88% 30.08 in 3.0 mi SE 8.1 mph - N/A Rain Light Rain
1:35 PM 51.8 °F - 50.0 °F 94% 30.05 in 1.8 mi ESE 9.2 mph - 0.03 in Rain Light Rain
1:55 PM 51.8 °F - 50.0 °F 94% 30.04 in 1.8 mi ESE 8.1 mph - 0.09 in Rain Light Rain
2:15 PM 51.8 °F - 50.0 °F 94% 30.03 in 4.0 mi SE 6.9 mph - N/A Rain Light Rain
2:35 PM 51.8 °F - 50.0 °F 94% 30.02 in 3.0 mi ESE 8.1 mph - N/A Rain Light Rain
2:55 PM 53.6 °F - 51.8 °F 94% 30.01 in 2.5 mi ESE 5.8 mph - 0.02 in Rain Light Rain
3:15 PM 53.6 °F - 51.8 °F 94% 30.00 in 4.0 mi SE 9.2 mph - N/A Rain Light Rain
3:35 PM 53.6 °F - 51.8 °F 94% 30.00 in 3.0 mi SE 8.1 mph - N/A Rain Light Rain
3:55 PM 53.6 °F - 53.6 °F 100% 29.97 in 5.0 mi SE 12.7 mph - N/A   Scattered Clouds
4:15 PM 53.6 °F - 51.8 °F 94% 29.97 in 5.0 mi SE 11.5 mph - N/A   Scattered Clouds
4:35 PM 53.6 °F - 51.8 °F 94% 29.97 in 7.0 mi SE 9.2 mph - N/A   Scattered Clouds
4:55 PM 53.6 °F - 51.8 °F 94% 29.97 in 7.0 mi SSE 9.2 mph - N/A   Partly Cloudy
5:15 PM 53.6 °F - 53.6 °F 100% 29.96 in 5.0 mi SSE 8.1 mph - N/A   Partly Cloudy
5:35 PM 53.6 °F - 53.6 °F 100% 29.96 in 5.0 mi South 6.9 mph - N/A   Scattered Clouds
5:55 PM 53.6 °F - 53.6 °F 100% 29.96 in 3.0 mi SSE 5.8 mph - N/A   Mostly Cloudy
6:15 PM 53.6 °F - 53.6 °F 100% 29.96 in 3.0 mi South 5.8 mph - N/A   Overcast
6:35 PM 53.6 °F - 53.6 °F 100% 29.96 in 3.0 mi West 3.5 mph - N/A   Overcast
6:55 PM 53.6 °F - 53.6 °F 100% 29.97 in 3.0 mi NW 4.6 mph - N/A   Overcast
7:15 PM 53.6 °F - 53.6 °F 100% 29.96 in 0.8 mi Calm Calm - N/A   Overcast
7:55 PM 51.8 °F - 51.8 °F 100% 29.96 in 1.0 mi Calm Calm - N/A   Overcast
8:15 PM 51.8 °F - 51.8 °F 100% 29.96 in 0.8 mi Calm Calm - N/A   Overcast
8:35 PM 51.8 °F - 51.8 °F 100% 29.96 in 0.8 mi Calm Calm - N/A   Mostly Cloudy
8:55 PM 51.8 °F - 51.8 °F 100% 29.96 in 0.5 mi Calm Calm - N/A Fog Fog
9:15 PM 51.8 °F - 51.8 °F 100% 29.96 in 0.5 mi Calm Calm - N/A Fog Fog
9:55 PM 51.8 °F - 51.8 °F 100% 29.96 in 0.2 mi Calm Calm - N/A Fog Fog
10:15 PM 51.8 °F - 51.8 °F 100% 29.95 in 0.2 mi SSE 3.5 mph - N/A Fog Fog
10:35 PM 51.8 °F - 51.8 °F 100% 29.95 in 0.2 mi SE 3.5 mph - N/A Fog Fog
10:55 PM 51.8 °F - 51.8 °F 100% 29.96 in 0.2 mi Calm Calm - N/A Fog Fog
11:15 PM 51.8 °F - 51.8 °F 100% 29.95 in 0.2 mi SSE 4.6 mph - N/A Fog Fog
11:35 PM 51.8 °F - 51.8 °F 100% 29.95 in 0.2 mi SSW 5.8 mph - N/A Fog Fog
11:55 PM 53.6 °F - 53.6 °F 100% 29.94 in 0.5 mi South 4.6 mph - N/A Fog Fog